Lake Wallenpaupack Weather Center

Moon Phase Calendar



Lake Wallenpaupack Water Level
Online Cameras

 


      

Current Conditions in Tanglewood
1/23/2022 4:32:43 PM

25°F
Feels Like 19
Clouds
Humidity
72%
Pressure
29.83"
Wind
5 mph (SW)
Dew Point
18°F
UV Index
0/10 (Low)
Visibility
6 mi

Hourly Forecast

Date & Time Sun, Jan 23
4:00 PM
Sun, Jan 23
5:00 PM
Sun, Jan 23
6:00 PM
Sun, Jan 23
7:00 PM
Sun, Jan 23
8:00 PM
Sun, Jan 23
9:00 PM
Sun, Jan 23
10:00 PM
Sun, Jan 23
11:00 PM
Mon, Jan 24
12:00 AM
Mon, Jan 24
1:00 AM
Mon, Jan 24
2:00 AM
Mon, Jan 24
3:00 AM
Mon, Jan 24
4:00 AM
Mon, Jan 24
5:00 AM
Mon, Jan 24
6:00 AM
Mon, Jan 24
7:00 AM
Mon, Jan 24
8:00 AM
Mon, Jan 24
9:00 AM
Mon, Jan 24
10:00 AM
Mon, Jan 24
11:00 AM
Mon, Jan 24
12:00 PM
Mon, Jan 24
1:00 PM
Mon, Jan 24
2:00 PM
Mon, Jan 24
3:00 PM
Mon, Jan 24
4:00 PM
Mon, Jan 24
5:00 PM
Mon, Jan 24
6:00 PM
Mon, Jan 24
7:00 PM
Mon, Jan 24
8:00 PM
Mon, Jan 24
9:00 PM
Mon, Jan 24
10:00 PM
Mon, Jan 24
11:00 PM
Tue, Jan 25
12:00 AM
Tue, Jan 25
1:00 AM
Tue, Jan 25
2:00 AM
Tue, Jan 25
3:00 AM
Tue, Jan 25
4:00 AM
Tue, Jan 25
5:00 AM
Tue, Jan 25
6:00 AM
Tue, Jan 25
7:00 AM
Tue, Jan 25
8:00 AM
Tue, Jan 25
9:00 AM
Tue, Jan 25
10:00 AM
Tue, Jan 25
11:00 AM
Tue, Jan 25
12:00 PM
Tue, Jan 25
1:00 PM
Tue, Jan 25
2:00 PM
Tue, Jan 25
3:00 PM
Condition
Clouds

Clouds

Clouds

Clouds

Clouds

Clouds

Clouds

Clouds

Clouds

Clouds

Clouds

Clouds

Clouds

Clouds

Clouds

Clouds

Clouds

Clouds

Clouds

Clouds

Clouds

Clouds

Clear

Clouds

Clouds

Clouds

Clouds

Clouds

Clouds

Clouds

Clouds

Clouds

Clouds

Clouds

Clouds

Clouds

Clouds

Clouds

Clouds

Clouds

Clouds

Clouds

Clouds

Clouds

Clouds

Clouds

Clouds

Clouds
Temperature 25°F25°F25°F23°F22°F21°F19°F17°F18°F17°F15°F15°F13°F12°F11°F10°F10°F14°F17°F20°F23°F25°F26°F26°F26°F22°F21°F22°F22°F22°F22°F22°F22°F22°F22°F21°F21°F22°F22°F22°F23°F28°F30°F31°F31°F31°F30°F29°F
Feels Like 18°F19°F20°F19°F17°F16°F13°F17°F18°F10°F7°F5°F3°F2°F2°F2°F3°F6°F10°F14°F18°F25°F26°F21°F26°F22°F21°F18°F17°F15°F14°F15°F15°F15°F15°F15°F15°F16°F16°F16°F16°F21°F22°F23°F22°F23°F21°F21°F
Cloudiness 100%100%100%100%98%98%93%90%92%92%90%94%95%89%75%65%22%19%15%13%11%11%7%21%47%61%68%74%100%100%100%99%99%98%95%77%76%78%72%67%14%15%38%49%59%66%100%100%
Visibility 6 mi6 mi6 mi3 mi6 mi6 mi6 mi4 mi3 mi4 mi6 mi6 mi6 mi6 mi6 mi6 mi6 mi6 mi6 mi6 mi6 mi6 mi6 mi6 mi6 mi6 mi6 mi6 mi6 mi3 mi6 mi6 mi6 mi6 mi6 mi6 mi6 mi6 mi6 mi6 mi6 mi6 mi6 mi6 mi6 mi6 mi6 mi6 mi
Precipitation 42%41%39%32%37%33%33%33%29%21%0%0%0%0%0%0%0%0%0%0%0%0%0%0%0%0%0%0%28%41%41%37%33%33%0%0%0%0%0%0%0%0%0%0%0%0%0%0%
Humidity 75%72%76%82%87%92%97%98%98%97%94%91%90%92%92%93%90%78%71%66%62%58%55%56%64%82%87%84%86%85%85%84%80%79%80%85%89%91%93%94%94%86%79%70%70%66%65%66%
Dew Point 19°F18°F19°F19°F19°F20°F17°F16°F16°F15°F12°F11°F9°F8°F6°F6°F6°F7°F8°F10°F11°F11°F12°F12°F14°F16°F17°F17°F18°F17°F17°F17°F16°F15°F16°F16°F17°F18°F19°F19°F20°F24°F24°F22°F21°F20°F19°F19°F
Pressure 29.83"29.83"29.83"29.83"29.83"29.83"29.8"29.8"29.8"29.83"29.85"29.85"29.88"29.88"29.91"29.94"29.97"29.97"29.97"29.94"29.91"29.88"29.85"29.85"29.85"29.85"29.91"29.91"29.91"29.88"29.88"29.85"29.85"29.85"29.85"29.85"29.85"29.83"29.85"29.88"29.91"29.91"29.94"29.94"29.94"29.94"29.97"29.97"
Wind Speed 5.8 mph5 mph3.6 mph3.2 mph3.9 mph4 mph3.6 mph2.9 mph2.8 mph4.8 mph5.8 mph6.5 mph6.6 mph5.9 mph5.1 mph4.3 mph4 mph5.1 mph4.8 mph4.2 mph3.3 mph2.5 mph2.9 mph4.8 mph2.8 mph1.5 mph2.2 mph3.1 mph3.5 mph5.6 mph6 mph5.7 mph5.8 mph5.3 mph5.6 mph4.7 mph4.4 mph4.1 mph4.4 mph4.8 mph4.6 mph7 mph9 mph9.9 mph9.2 mph9.4 mph9.6 mph8.9 mph
Wind
Direction
232°
SW
222°
SW
204°
SSW
199°
SSW
219°
SW
232°
SW
228°
SW
241°
WSW
279°
W
324°
NW
318°
NW
320°
NW
323°
NW
324°
NW
320°
NW
315°
NW
313°
NW
329°
NNW
333°
NNW
341°
NNW
314°
NW
265°
W
242°
WSW
221°
SW
230°
SW
197°
SSW
198°
SSW
190°
S
180°
S
179°
S
185°
S
187°
S
189°
S
194°
SSW
195°
SSW
199°
SSW
200°
SSW
211°
SSW
225°
SW
235°
SW
240°
WSW
254°
WSW
269°
W
277°
W
284°
WNW
290°
WNW
297°
WNW
301°
WNW

Daily Forecast

Date High Low Precip. Humidity
Today
Jan 23

Snow
27 °F
16 °F
42%
67%
Monday
Jan 24

Clouds
26 °F
10 °F
41%
62%
Tuesday
Jan 25

Snow
31 °F
16 °F
33%
66%
Wednesday
Jan 26

Clouds
17 °F
5 °F
0%
59%
Thursday
Jan 27

Clouds
26 °F
3 °F
0%
46%
Friday
Jan 28

Snow
30 °F
11 °F
100%
78%
Saturday
Jan 29

Clouds
16 °F
3 °F
0%
47%
Sunday
Jan 30

Clouds
22 °F
5 °F
0%
59%
Monday
Jan 31

Clouds
32 °F
18 °F
5%
68%
Tuesday
Feb 1

Clouds
17 °F
6 °F
0%
49%
Wednesday
Feb 2

Clouds
23 °F
5 °F
0%
54%
Thursday
Feb 3

Snow
36 °F
16 °F
26%
83%
Friday
Feb 4

Rain
37 °F
33 °F
100%
99%
Saturday
Feb 5

Snow
42 °F
23 °F
100%
74%
Sunday
Feb 6

Clouds
30 °F
18 °F
0%
55%
Monday
Feb 7

Snow
35 °F
25 °F
100%
93%

Temperature 8-14 Day Outlook



Precipitation 8-14 Day Outlook




Quick Links
Lake Wallenpaupack News
Lake Wallenpaupack Photos
Lake Wallenpaupack Videos




About Us
Contact Us
Site Map
Search Site
Advertise With Us
   
Wallenpaupack.USLakes.info
THE LAKE WALLENPAUPACK WEBSITE

Copyright 2022, Lakes Online
Privacy    |    Legal